カタログに戻る

SL-16 DEB

運用中LEO
NORAD 22437·DEBRIS·🇷🇺 Russia

打ち上げ Dec 25, 1992 から Baikonur Cosmodrome

Loading…

次のパス (今後24時間)

TLE

最新Source: Space-Track

元期: Sep 13, 2026, 20:19 UTC

1 22437U 92093EE  26256.84664920  .00001448  00000-0  34089-3 0  9995
2 22437  71.3293 294.4044 0032877  36.7830 323.5563 14.55672635761810

AllMySatでSL-16 DEBをリアルタイム追跡

Download on the App Store